Flag for Monaco Weather past 2 weeks in Monaco, Monaco

Now
59 °F

Partly sunny.


Feels Like: 57 °F
Forecast: 52 / 61 °F
Wind: 13 mph from South

Location: Nice Airport


UV Index: 3 (Moderate)

Visibility: N/A


Pressure: 29.80 "Hg

Humidity: 77%

Dew point: 52 °F

Location of MonacoLocation

Historic Weather in Monaco

°F

Monaco temperature yesterday

Maximum temperature yesterday: 64 °F (at 4:00 PM)
Minimum temperature yesterday: 50 °F (at 3:00 AM)
Average temperature yesterday: 57 °F

Past Weeks' High & Low Weather Summary

 TemperatureHumidityPressure
High68 °F (Apr 5, 11:30 AM)88% (Apr 7, 8:30 PM)30.15 "Hg (Apr 7, 8:30 PM)
Low50 °F (Apr 17, 3:00 AM)35% (Apr 4, 2:30 AM)29.50 "Hg (Apr 4, 6:30 AM)
Average60 °F67%29.97 "Hg
* Reported Apr 3 12:00 Noon — Apr 18 12:30 PM, Monaco, Weather by CustomWeather, © 2014

Note: Actual official high and low records may vary slightly from our data, if they occured in-between our weather recording intervals... More about our weather records

Advertising

Historic Weather Conditions — Data for Previous 24 hours

 ConditionsComfort  
Time TempWeatherWind HumidityBarometerVisibility
12:30 PM
Apr 18
59 °FSunny.12 mph72%29.83 "Hg10 mi
12:00 PM61 °FSunny.8 mph68%29.83 "Hg10 mi
11:30 AM61 °FSunny.10 mph68%29.83 "Hg10 mi
11:00 AM61 °FPassing clouds.6 mph55%29.83 "HgN/A
10:35 AM59 °FPartly sunny.6 mph59%29.86 "HgN/A
9:52 AM59 °FPartly sunny.7 mph55%29.86 "HgN/A
9:30 AM59 °FPartly sunny.6 mph48%29.86 "HgN/A
8:30 AM55 °FPartly sunny.9 mph55%29.86 "HgN/A
8:00 AM54 °FSunny.7 mph58%29.86 "Hg10 mi
7:30 AM54 °FClear.7 mph58%29.86 "Hg10 mi
7:00 AM54 °FClear.7 mph58%29.86 "Hg10 mi
6:30 AM54 °FClear.9 mph58%29.89 "Hg10 mi
6:00 AM55 °FClear.8 mph51%29.89 "Hg10 mi
5:30 AM54 °FClear.8 mph54%29.89 "Hg10 mi
5:00 AM54 °FPassing clouds.6 mph58%29.89 "HgN/A
4:30 AM54 °FClear.12 mph54%29.89 "Hg10 mi
4:00 AM55 °FClear.9 mph51%29.92 "Hg10 mi
3:30 AM54 °FClear.8 mph58%29.92 "Hg10 mi
3:00 AM55 °FClear.8 mph55%29.92 "Hg10 mi
2:30 AM55 °FClear.12 mph55%29.92 "Hg10 mi
2:00 AM55 °FClear.8 mph55%29.95 "Hg10 mi
1:30 AM55 °FClear.7 mph55%29.95 "Hg10 mi
1:00 AM57 °FClear.5 mph63%29.95 "Hg10 mi
12:30 AM57 °FClear.7 mph63%29.95 "Hg10 mi
12:00 AM59 °FPassing clouds.7 mph55%29.95 "HgN/A
11:30 PM
Apr 17
57 °FPassing clouds.6 mph59%29.95 "HgN/A
11:00 PM59 °FPassing clouds.5 mph55%29.95 "HgN/A
10:30 PM59 °FPassing clouds.5 mph55%29.98 "HgN/A
10:00 PM61 °FPassing clouds.6 mph55%29.98 "HgN/A
9:30 PM59 °FPassing clouds.6 mph68%29.98 "HgN/A
9:00 PM61 °FPartly sunny.5 mph72%29.98 "HgN/A
8:30 PM61 °FPartly sunny.2 mph72%29.98 "HgN/A
8:00 PM61 °FPartly sunny.2 mph72%29.98 "HgN/A
7:00 PM63 °FPassing clouds.7 mph68%29.98 "HgN/A
6:30 PM63 °FPassing clouds.8 mph68%29.98 "HgN/A
6:00 PM63 °FPassing clouds.9 mph64%29.98 "HgN/A
5:30 PM64 °FPassing clouds.9 mph60%29.98 "HgN/A
5:00 PM64 °FPassing clouds.10 mph64%30.01 "HgN/A
4:30 PM64 °FPassing clouds.7 mph52%30.01 "HgN/A
4:00 PM64 °FPassing clouds.8 mph46%30.01 "HgN/A
3:30 PM63 °FPassing clouds.7 mph52%30.04 "HgN/A
3:00 PM61 °FPassing clouds.6 mph52%30.04 "HgN/A
2:30 PM61 °FPassing clouds.6 mph55%30.04 "HgN/A
2:00 PM61 °FPassing clouds.6 mph55%30.04 "HgN/A
1:30 PM59 °FPassing clouds.5 mph55%30.07 "HgN/A
1:00 PM61 °FPassing clouds.5 mph55%30.07 "HgN/A
Weather by CustomWeather, © 2014

See weather overview